This is the latest recevied weather packets stored in our database for station/object KC3ROS. If no packets are shown the sender has not sent any weather packets the latest 10 day(s).
| Time | Temp. | Humidity | Pressure | Rain* | Wind** | Luminosity | Snow |
|---|---|---|---|---|---|---|---|
| 1777726940 | 2.78° C | 99% | 1014 hPa | 0 mm | - | 23 W/m² | - |
| 1777726636 | 2.78° C | 99% | 1014 hPa | 0.51 mm | - | 25 W/m² | - |
| 1777726334 | 2.78° C | 99% | 1014.2 hPa | 0.51 mm | - | 20 W/m² | - |
| 1777726031 | 2.78° C | 99% | 1014.4 hPa | 0.51 mm | - | 20 W/m² | - |
| 1777725727 | 2.78° C | 99% | 1014.4 hPa | 0 mm | - | 18 W/m² | - |
| 1777725426 | 2.78° C | 99% | 1014.4 hPa | 0 mm | - | 27 W/m² | - |
| 1777725123 | 2.78° C | 99% | 1014.3 hPa | 0 mm | - | 62 W/m² | - |
| 1777724819 | 2.78° C | 99% | 1014.3 hPa | 0 mm | - | 57 W/m² | - |
| 1777724516 | 2.78° C | 99% | 1014.3 hPa | 0 mm | - | 64 W/m² | - |
| 1777724214 | 2.78° C | 99% | 1013.9 hPa | 0 mm | - | 39 W/m² | - |
| 1777723911 | 2.78° C | 99% | 1014.3 hPa | 0 mm | - | 31 W/m² | - |
| 1777723608 | 2.78° C | 99% | 1014.2 hPa | 0 mm | - | 23 W/m² | - |
| 1777723305 | 2.78° C | 99% | 1014.3 hPa | 0 mm | - | 29 W/m² | - |
| 1777723002 | 2.78° C | 99% | 1014.2 hPa | 0 mm | - | 52 W/m² | - |
| 1777722698 | 2.78° C | 99% | 1014.3 hPa | 0 mm | - | 57 W/m² | - |
| 1777722394 | 2.78° C | 99% | 1014.2 hPa | 0 mm | - | 113 W/m² | - |
| 1777722092 | 2.22° C | 99% | 1014.3 hPa | 0 mm | - | 108 W/m² | - |
| 1777721789 | 2.22° C | 99% | 1014.4 hPa | 0 mm | - | 55 W/m² | - |
| 1777721487 | 2.22° C | 99% | 1014 hPa | 0 mm | - | 41 W/m² | - |
| 1777721185 | 1.67° C | 99% | 1014.2 hPa | 0 mm | - | 70 W/m² | - |
| 1777720882 | 1.11° C | 99% | 1013.9 hPa | 0 mm | - | 44 W/m² | - |
| 1777720579 | 1.11° C | 99% | 1014.2 hPa | 0 mm | - | 38 W/m² | - |
| 1777720277 | 1.11° C | 99% | 1013.8 hPa | 0 mm | - | 30 W/m² | - |
| 1777719974 | 1.11° C | 99% | 1013.9 hPa | 0 mm | - | 25 W/m² | - |
| 1777719672 | 1.11° C | 99% | 1013.8 hPa | 0 mm | - | 20 W/m² | - |
* Rain latest hour (hover to see other rain measurements)
** Current wind speed in m/s (hover to see current wind gust speed)